User: anonymous   Login
Location: Pulvis Stellarum Observatory
(41.6962°N, 71.4263°W)
Time: 14:36:09
(UTC-05:00)
Language:

Cosmos 1758 - Orbit

View from above orbital plane
View from above orbital plane
View from above satellite
View from above satellite

Ground track
Ground track

The orbit data is extracted from the following two-line orbital elements,

1 16791U 86046A   18022.87851255 +.00000014 +00000-0 -10814-5 0  9997
2 16791 082.4699 177.9999 0018024 064.1761 296.1322 15.04610714718432
Epoch (UTC): 22 January 2018 21:05:03
Eccentricity: 0.0018024
inclination: 82.4699°
perigee height: 540 km
apogee height: 565 km
right ascension of ascending node: 177.9999°
argument of perigee: 64.1761°
revolutions per day: 15.04610714
mean anomaly at epoch: 296.1322°
orbit number at epoch: 71843

The dashed part of the orbit path shows where the satellite is in the earth's shadow,  

DLR